Home   Weather   Ho Chi Minh   Past weeks

Flag for Vietnam Past Weather in Ho Chi Minh, Vietnam — Yesterday and Last 2 Weeks

Now
84 °F

Passing clouds.


Feels Like: 92 °F
Forecast: 79 / 91 °F
Wind: 1 mph from North

Location: Ho Chi Minh

Current Time: Apr 24, 2017 at 8:47:46 pm

Latest Report: Apr 24, 2017 at 8:00 pm


Visibility: N/A

Pressure: 29.83 "Hg

Humidity: 74%

Dew Point: 75 °F

Location of Ho Chi MinhLocation

Past Weather in Ho Chi Minh — Graph

°F

Ho Chi Minh Temperature Yesterday

Maximum temperature yesterday: 93 °F (at 11:00 am)
Minimum temperature yesterday: 77 °F (at 12:30 pm)
Average temperature yesterday: 83 °F

High & Low Weather Summary for the Past Weeks

 TemperatureHumidityPressure
High99 °F (Apr 22, 1:00 pm)100% (Apr 10, 1:00 am)29.92 "Hg (Apr 10, 1:00 am)
Low77 °F (Apr 23, 12:30 pm)30% (Apr 15, 2:00 pm)29.68 "Hg (Apr 10, 3:30 pm)
Average86 °F71%29.80 "Hg
* Reported Apr 9 7:00 pm — Apr 24 7:00 pm, Ho Chi Minh, Weather by CustomWeather, © 2017

Note: Actual official high and low records may vary slightly from our data, if they occured in-between our weather recording intervals... More about our weather records

Advertising

Ho Chi Minh Weather History for the Previous 24 Hours

Scroll right to see more
 ConditionsComfort  
Time TempWeatherWind HumidityBarometerVisibility
7:00 pm
Mon, Apr 24
86 °FPassing clouds.7 mph70%29.80 "HgN/A
6:30 pm88 °FPassing clouds.7 mph62%29.77 "HgN/A
6:00 pm88 °FScattered clouds.6 mph62%29.77 "HgN/A
5:30 pm88 °FScattered clouds.8 mph59%29.74 "HgN/A
5:00 pm90 °FPassing clouds.7 mph49%29.74 "HgN/A
4:30 pm91 °FPassing clouds.8 mph46%29.74 "HgN/A
4:00 pm93 °FScattered clouds.10 mph44%29.74 "HgN/A
3:30 pm93 °FScattered clouds.9 mph47%29.77 "HgN/A
3:00 pm93 °FScattered clouds.9 mph49%29.74 "HgN/A
2:30 pm91 °FScattered clouds.9 mph56%29.77 "HgN/A
2:00 pm93 °FScattered clouds.9 mph53%29.77 "HgN/A
1:30 pm93 °FPartly sunny.9 mph53%29.80 "HgN/A
1:00 pm91 °FScattered clouds.9 mph59%29.80 "HgN/A
12:30 pm93 °FScattered clouds.8 mph53%29.83 "HgN/A
12:00 pm93 °FScattered clouds.7 mph53%29.86 "HgN/A
11:30 am91 °FScattered clouds.7 mph52%29.86 "HgN/A
11:00 am91 °FScattered clouds.6 mph56%29.89 "HgN/A
10:30 am90 °FScattered clouds.8 mph67%29.89 "HgN/A
10:00 am88 °FScattered clouds.7 mph70%29.89 "HgN/A
9:30 am88 °FScattered clouds.6 mph70%29.89 "HgN/A
9:00 am86 °FScattered clouds.8 mph75%29.89 "Hg5 mi
8:30 am82 °FSprinkles. Scattered clouds.10 mph74%29.89 "Hg5 mi
8:00 am84 °FScattered clouds.7 mph79%29.89 "HgN/A
7:30 am84 °FPassing clouds.7 mph79%29.86 "HgN/A
7:00 am82 °FPassing clouds.5 mph84%29.86 "Hg5 mi
6:30 am81 °FScattered clouds.6 mph94%29.83 "Hg4 mi
6:00 am79 °FFog.5 mph94%29.83 "Hg4 mi
5:30 am79 °FPassing clouds.3 mph94%29.83 "Hg4 mi
5:00 am79 °FPassing clouds.5 mph94%29.83 "HgN/A
4:30 am79 °FPassing clouds.5 mph94%29.80 "HgN/A
3:30 am81 °FPassing clouds.1 mph89%29.80 "HgN/A
3:00 am81 °FPassing clouds.3 mph89%29.77 "HgN/A
2:30 am81 °FPassing clouds.3 mph89%29.80 "HgN/A
2:00 am81 °FPassing clouds.2 mph89%29.80 "Hg5 mi
1:30 am81 °FPassing clouds.2 mph89%29.80 "Hg5 mi
1:00 am79 °FPassing clouds.2 mph94%29.83 "Hg5 mi
12:30 am81 °FPassing clouds.1 mph89%29.83 "Hg5 mi
12:00 am79 °FPassing clouds.2 mph94%29.83 "Hg5 mi
11:30 pm
Sun, Apr 23
79 °FPassing clouds.2 mph94%29.86 "Hg5 mi
11:00 pm81 °FPassing clouds.2 mph89%29.89 "Hg5 mi
10:30 pm81 °FPassing clouds.1 mph89%29.89 "Hg5 mi
10:00 pm81 °FPassing clouds.3 mph89%29.89 "Hg5 mi
9:30 pm81 °FPassing clouds.6 mph89%29.86 "Hg5 mi
9:00 pm81 °FPassing clouds.6 mph89%29.86 "Hg5 mi
Weather by CustomWeather, © 2017

See weather overviewHow to use our weather pages